COSMOS 1275 DEB, 42220

Orbit data source: Space-Track

COSMOS 1275 DEB, 42220 is space debris in LEO originally from a launch on Thu, 04 Jun 1981 UTC launched from the Plesetsk Missile And Space Complex (PKMTR). Debris objects in space refer to the collection of defunct objects orbiting the Earth. Examples of debris include non-operational satellites, rocket bodies, and fragments generated from explosions, collisions, or faulty payload assembly.

Loading next visibility...
Identifier
42220, 1981-053UL
Orbit
LEO
Country
Flag of CISCIS
Related business
Manufacturer
Unknown
Mission
Spacecraft
Bus & Motor
Unknown
Mass
Unknown
Launch date (UTC)
1981-06-04 (45 years ago)
Launch vehicle
Unknown
Launch site
Plesetsk Missile And Space Complex (PKMTR)
Object type
Payload
Rocket body
Debris
Shape & HBR
Unknown shape, 0.1 m
Radar Cross Section
Small (<0.1 m²)

Expand to show TLE details & history
Last TLE update: 2 days ago

TLE from 2 days ago
0 COSMOS 1275 DEB
1 42220U 81053UL  26066.83971992  .00016560  00000-0  35812-2 0  9994
2 42220  82.9069  19.3086 0016121 235.1310 124.8377 14.58105485641104
Epoch: 2026-03-07T20:09Z
TLE epoch observation values (Epoch: 2026-03-07T20:09:11.801Z)
Latitude
-0.00002°
Longitude
-88.54618°
Altitude
708.844 km
Speed
7.498 km/s
True Right ascension
01h 17m 14s
True Declination
0° 00' 00"
Sunlit
Object was in daylight at epoch
Visualization orbit readout
Latitude
Unknown
Longitude
Unknown
Altitude
Unknown
Speed
Unknown
Apparent Right ascension
Unknown
Apparent Declination
Unknown
Sunlit
N/A
Visualization observer readout
Local Sidereal Time
15:42:02
Azimuth
Unknown
Elevation
Unknown
Doppler factor
Unknown
Orbital elements
Apogee altitude
707.739 km
Perigee altitude
684.929 km
Semi-major axis
7,074.471 km
Eccentricity
0.00161
Inclination
82.9069°
RAAN
19.3086°
Arg. of periapsis
235.131°
True anomaly
124.98915°
Mean anomaly
124.8377°
Eccentric anomaly
124.91344°
Mean motion
3.64756 °/min
Orbital period
98.7 mins
BSTAR
0.0035812
Loading maneuver chart data...
Computing Atmospheric mass density...
Loading historical data...
Loading historical data...
Loading historical data...
Loading historical data...
Loading historical data...
Loading historical data...
Loading historical data...

Documentation

Showing up to 5 results
|